Location: Bartshausen
(51.8454°N, 9.8167°E)
Time: 23:49:52
(UTC+00:00)

NOSS 7 (E) - Pass Details

Date: 08 November 2025
Orbit: 401 x 1597 km, 63.3° (Epoch: 04 December)

Event Time Altitude Azimuth Distance (km) Brightness Sun altitude
Exits shadow 05:26:50 11° 314° (NW) 1,392 6.4 -9.6°
Maximum altitude 05:29:47 86° 229° (SW) 413 4.1 -9.2°
Drops below altitude 10° 05:33:03 10° 137° (SE) 1,532 8.1 -8.7°
Sets 05:35:15 0° 137° (SE) 2,486 9.3 -8.4°
